, TX

(GMT )
Midland

Weather History for KMAF - December, 2013

Change the Weather History Date:

Friday, December 13, 2013

  Actual Average Record
Temperature  
Mean Temperature 50 °F 44 °F  
Max Temperature 64 °F 58 °F 82 °F (1995)
Min Temperature 36 °F 31 °F 14 °F (1985)
Degree Days  
Heating Degree Days 15 21  
Month to date heating degree days 305 252  
Since 1 July heating degree days 802 731  
Moisture  
Dew Point 35 °F    
Average Humidity 62    
Maximum Humidity 89    
Minimum Humidity 34    
Precipitation  
Precipitation T in 0.02 in 0.58 in (1979)
Month to date precipitation 0.31 0.26  
Year to date precipitation 7.38 14.26  
Snow  
Snow 0.00 in - - ()
Month to date snowfall T  
Since 1 July snowfall 0.1  
Snow Depth 0.00 in    
Sea Level Pressure  
Sea Level Pressure 29.91 in    
Wind  
Wind Speed 12 mph (SW)    
Max Wind Speed 30 mph    
Max Gust Speed 38 mph    
Visibility 9 miles    
Events Rain    
T = Trace of Precipitation, MM = Missing Value Source: NWS Daily Summary

Daily Weather History Graph

Daily Weather History Graph

Search for Another Location

Airport or City:

Trip Planner

Search our weather history database for the weather conditions in past years. The results will help you decide how hot, cold, wet, or windy it might be!

Date:

Astronomy

Dec. 13, 2013 Rise Set
Actual Time 7:40 AM CST 5:45 PM CST
Civil Twilight 7:13 AM CST 6:12 PM CST
Nautical Twilight 6:43 AM CST 6:43 PM CST
Astronomical Twilight 6:13 AM CST 7:12 PM CST
Moon 3:22 PM CST 4:14 AM CST
Length of Visible Light 10h 59m
Length of Day
10h 05m
Waxing Gibbous, 88% of the Moon is Illuminated
Dec 13
Waxing Gibbous
Dec 17
Full
Dec 25
Last Quarter
Jan 1
New
Jan 7
First Quarter

Hourly Weather History & Observations

Time (CST) Temp. Windchill Dew Point Humidity Pressure Visibility Wind Dir Wind Speed Gust Speed Precip Events Conditions
12:53 AM 41.0 °F 37.1 °F 30.9 °F 67% 30.14 in 10.0 mi South 5.8 mph - N/A   Mostly Cloudy
1:53 AM 39.9 °F 33.9 °F 32.0 °F 73% 30.09 in 10.0 mi SSE 9.2 mph - 0.00 in   Overcast
2:53 AM 39.9 °F 34.5 °F 33.1 °F 77% 30.06 in 10.0 mi South 8.1 mph - N/A   Overcast
3:53 AM 39.9 °F 34.5 °F 33.1 °F 77% 30.02 in 10.0 mi South 8.1 mph - N/A   Overcast
4:53 AM 39.9 °F 35.1 °F 33.1 °F 77% 30.01 in 9.0 mi South 6.9 mph - N/A   Overcast
5:53 AM 37.0 °F 34.5 °F 33.1 °F 86% 29.98 in 8.0 mi SSW 3.5 mph - N/A   Partly Cloudy
6:53 AM 37.0 °F 32.4 °F 32.0 °F 82% 29.98 in 8.0 mi South 5.8 mph - N/A   Clear
7:53 AM 36.0 °F 31.1 °F 32.0 °F 86% 29.97 in 5.0 mi SSW 5.8 mph - N/A   Clear
8:53 AM 39.0 °F 32.8 °F 33.1 °F 79% 29.97 in 8.0 mi SSW 9.2 mph - N/A   Clear
9:53 AM 45.0 °F 39.3 °F 34.0 °F 65% 29.96 in 10.0 mi SSW 11.5 mph - N/A   Mostly Cloudy
10:53 AM 44.1 °F 39.0 °F 37.0 °F 76% 29.94 in 8.0 mi West 9.2 mph 18.4 mph 0.00 in Rain Light Rain
11:53 AM 46.9 °F - 39.9 °F 77% 29.89 in 10.0 mi SSW 16.1 mph - 0.00 in   Scattered Clouds
12:53 PM 53.1 °F - 39.0 °F 59% 29.85 in 10.0 mi SW 18.4 mph - N/A   Clear
1:53 PM 59.0 °F - 41.0 °F 51% 29.80 in 10.0 mi SW 20.7 mph 29.9 mph N/A   Clear
2:53 PM 62.1 °F - 39.9 °F 44% 29.78 in 10.0 mi WSW 25.3 mph 38.0 mph N/A   Clear
3:53 PM 63.0 °F - 39.0 °F 41% 29.76 in 10.0 mi WSW 16.1 mph - N/A   Clear
4:53 PM 63.0 °F - 34.0 °F 34% 29.77 in 10.0 mi West 19.6 mph 27.6 mph N/A   Clear
5:53 PM 57.0 °F - 32.0 °F 39% 29.81 in 10.0 mi West 15.0 mph - N/A   Clear
6:53 PM 54.0 °F - 33.1 °F 45% 29.83 in 10.0 mi West 15.0 mph - N/A   Clear
7:53 PM 51.1 °F - 34.0 °F 52% 29.85 in 10.0 mi WSW 10.4 mph - N/A   Clear
8:53 PM 48.0 °F - 35.1 °F 61% 29.86 in 10.0 mi WSW 12.7 mph - N/A   Clear
9:53 PM 46.9 °F - 34.0 °F 61% 29.88 in 10.0 mi SW 10.4 mph - N/A   Clear
10:53 PM 46.0 °F 41.0 °F 34.0 °F 63% 29.90 in 10.0 mi WSW 10.4 mph - N/A   Clear
11:53 PM 42.1 °F 36.1 °F 34.0 °F 73% 29.91 in 10.0 mi West 10.4 mph - N/A   Clear